| time (UTC) | temp F | wind direction | speed knots | gust knots | rain 1hr in | rain 24hr in | rain mn in | humidity % | barometer mb |
| 20260510153035 | 68 | 107 | 1.7 | 3.5 | 0.00 | 0.00 | 0.00 | 100 | 1017.0 |
| 20260510151555 | 67 | 91 | 0.9 | 3.5 | 0.00 | 0.00 | 0.00 | 100 | 1016.9 |
| 20260510150052 | 66 | 107 | 1.7 | 4.3 | 0.00 | 0.00 | 0.00 | 100 | 1016.8 |
| 20260510144507 | 66 | 118 | 1.7 | 3.5 | 0.00 | 0.00 | 0.00 | 100 | 1016.8 |
| 20260510143039 | 65 | 124 | 0.9 | 3.5 | 0.00 | 0.00 | 0.00 | 100 | 1016.9 |
| 20260510141550 | 65 | 114 | 0.9 | 2.6 | 0.00 | 0.00 | 0.00 | 100 | 1016.9 |
| 20260510140011 | 65 | 111 | 0.0 | 3.5 | 0.00 | 0.00 | 0.00 | 100 | 1016.6 |
| 20260510134601 | 64 | 109 | 0.9 | 3.5 | 0.00 | 0.00 | 0.00 | 100 | 1016.4 |
| 20260510133103 | 63 | 118 | 0.9 | 3.5 | 0.00 | 0.00 | 0.00 | 100 | 1016.5 |
| 20260510131600 | 63 | 113 | 0.9 | 3.5 | 0.00 | 0.00 | 0.00 | 100 | 1016.6 |
| 20260510130026 | 62 | 114 | 1.7 | 3.5 | 0.00 | 0.00 | 0.00 | 100 | 1016.5 |
| 20260510124511 | 62 | 113 | 0.0 | 1.7 | 0.00 | 0.00 | 0.00 | 100 | 1016.4 |
| 20260510123029 | 61 | 112 | 1.7 | 3.5 | 0.00 | 0.00 | 0.00 | 100 | 1016.3 |
| 20260510121600 | 61 | 114 | 0.0 | 0.0 | 0.00 | 0.00 | 0.00 | 100 | 1016.2 |
| 20260510120008 | 61 | 114 | 0.0 | 0.0 | 0.00 | 0.00 | 0.00 | 100 | 1016.1 |
| 20260510114530 | 60 | 112 | 0.0 | 1.7 | 0.00 | 0.00 | 0.00 | 100 | 1015.7 |
| 20260510113056 | 60 | 112 | 0.0 | 1.7 | 0.00 | 0.00 | 0.00 | 100 | 1015.5 |
| 20260510111557 | 60 | 112 | 0.0 | 0.0 | 0.00 | 0.00 | 0.00 | 100 | 1015.2 |
| 20260510110032 | 60 | 112 | 0.0 | 0.0 | 0.00 | 0.00 | 0.00 | 100 | 1015.0 |
| 20260510104524 | 60 | 112 | 0.0 | 0.0 | 0.00 | 0.00 | 0.00 | 100 | 1014.7 |
| 20260510103042 | 60 | 112 | 0.0 | 0.0 | 0.00 | 0.00 | 0.00 | 100 | 1014.4 |
| 20260510101554 | 60 | 112 | 0.0 | 0.0 | 0.00 | 0.00 | 0.00 | 100 | 1014.3 |
| 20260510100100 | 61 | 112 | 0.0 | 0.0 | 0.00 | 0.00 | 0.00 | 100 | 1014.0 |
| 20260510094532 | 61 | 112 | 0.0 | 0.0 | 0.00 | 0.00 | 0.00 | 100 | 1013.7 |
| 20260510093024 | 61 | 112 | 0.0 | 0.0 | 0.00 | 0.00 | 0.00 | 100 | 1013.6 |
| 20260510091541 | 60 | 112 | 0.0 | 0.0 | 0.00 | 0.00 | 0.00 | 100 | 1013.5 |
| 20260510090038 | 60 | 112 | 0.0 | 0.0 | 0.00 | 0.00 | 0.00 | 100 | 1013.5 |
| 20260510084527 | 60 | 112 | 0.0 | 0.0 | 0.00 | 0.00 | 0.00 | 100 | 1013.3 |
| 20260510083015 | 60 | 112 | 0.0 | 0.0 | 0.00 | 0.00 | 0.00 | 100 | 1013.2 |
| 20260510081513 | 61 | 112 | 0.0 | 0.0 | 0.00 | 0.00 | 0.00 | 100 | 1013.3 |
| 20260510080008 | 61 | 112 | 0.0 | 0.0 | 0.00 | 0.00 | 0.00 | 100 | 1013.3 |
| 20260510074557 | 61 | 112 | 0.0 | 0.0 | 0.00 | 0.00 | 0.00 | 100 | 1013.0 |
| 20260510073050 | 62 | 112 | 0.0 | 0.0 | 0.00 | 0.00 | 0.00 | 100 | 1012.9 |
| 20260510071511 | 62 | 112 | 0.0 | 0.0 | 0.00 | 0.00 | 0.00 | 100 | 1012.9 |
| 20260510070005 | 62 | 112 | 0.0 | 0.0 | 0.00 | 0.00 | 0.00 | 100 | 1012.8 |
| 20260510064510 | 63 | 112 | 0.0 | 0.0 | 0.00 | 0.00 | 0.00 | 100 | 1013.0 |
| 20260510063053 | 63 | 112 | 0.0 | 0.0 | 0.00 | 0.00 | 0.00 | 100 | 1013.1 |
| 20260510061547 | 64 | 112 | 0.0 | 0.0 | 0.00 | 0.00 | 0.00 | 100 | 1013.1 |
| 20260510060036 | 64 | 112 | 0.0 | 0.0 | 0.00 | 0.00 | 0.00 | 100 | 1013.1 |
| 20260510054548 | 64 | 112 | 0.0 | 0.0 | 0.00 | 0.00 | 0.00 | 100 | 1013.1 |
| 20260510053042 | 64 | 112 | 0.0 | 0.0 | 0.00 | 0.00 | 0.00 | 100 | 1013.0 |
| 20260510051544 | 65 | 112 | 0.0 | 0.0 | 0.00 | 0.00 | 0.00 | 100 | 1012.9 |
| 20260510044557 | 66 | 111 | 0.0 | 0.0 | 0.00 | 0.00 | 0.00 | 100 | 1013.0 |
| 20260510043020 | 67 | 111 | 0.0 | 0.0 | 0.00 | 0.00 | 0.00 | 100 | 1012.9 |
| 20260510041516 | 67 | 111 | 0.0 | 0.0 | 0.00 | 0.00 | 0.00 | 100 | 1013.0 |
| 20260510040010 | 67 | 110 | 0.0 | 0.0 | 0.00 | 0.00 | 0.00 | 100 | 1013.2 |
| 20260510034544 | 68 | 110 | 0.0 | 0.0 | 0.00 | 0.00 | 0.00 | 100 | 1013.3 |
| 20260510033028 | 68 | 110 | 0.0 | 2.6 | 0.00 | 0.00 | 0.00 | 100 | 1013.4 |
| 20260510031539 | 68 | 116 | 0.0 | 0.0 | 0.00 | 0.00 | 0.00 | 100 | 1013.4 |
| 20260510030057 | 68 | 116 | 0.0 | 1.7 | 0.00 | 0.00 | 0.00 | 100 | 1013.3 |
| 20260510024501 | 69 | 116 | 0.0 | 3.5 | 0.00 | 0.00 | 0.00 | 100 | 1013.1 |
| 20260510023047 | 68 | 116 | 0.9 | 2.6 | 0.00 | 0.00 | 0.00 | 100 | 1012.8 |
| 20260510021548 | 68 | 109 | 0.0 | 1.7 | 0.00 | 0.00 | 0.00 | 100 | 1012.6 |
| 20260510020008 | 68 | 109 | 0.0 | 0.0 | 0.00 | 0.00 | 0.00 | 100 | 1012.3 |
| 20260510014503 | 69 | 124 | 0.0 | 0.0 | 0.00 | 0.00 | 0.00 | 100 | 1012.0 |
| 20260510013101 | 69 | 124 | 0.0 | 0.0 | 0.00 | 0.00 | 0.00 | 100 | 1011.6 |
| 20260510011552 | 70 | 124 | 0.0 | 0.0 | 0.00 | 0.00 | 0.00 | 100 | 1011.3 |
| 20260510010055 | 72 | 123 | 0.0 | 0.0 | 0.00 | 0.00 | 0.00 | 100 | 1010.8 |
| 20260510004553 | 74 | 123 | 0.0 | 0.0 | 0.00 | 0.00 | 0.00 | 100 | 1010.6 |
| 20260510003048 | 76 | 122 | 0.0 | 0.0 | 0.00 | 0.00 | 0.00 | 21 | 1010.4 |
| 20260510001528 | 79 | 122 | 0.0 | 0.0 | 0.00 | 0.00 | 0.00 | 30 | 1010.4 |
| 20260510000034 | 80 | 121 | 0.0 | 0.0 | 0.00 | 0.00 | 0.00 | 38 | 1010.3 |
| 20260509234618 | 80 | 122 | 0.9 | 2.6 | 0.00 | 0.00 | 0.00 | 38 | 1010.2 |
| 20260509233100 | 80 | 130 | 0.0 | 1.7 | 0.00 | 0.00 | 0.00 | 37 | 1010.2 |
| 20260509233005 | 80 | 130 | 0.0 | 2.6 | 0.00 | 0.00 | 0.00 | 36 | 1010.2 |
| 20260509231516 | 80 | 144 | 1.7 | 3.5 | 0.00 | 0.00 | 0.00 | 37 | 1010.1 |
| 20260509230021 | 79 | 116 | 0.9 | 2.6 | 0.00 | 0.00 | 0.00 | 26 | 1010.2 |
| 20260509224514 | 78 | 111 | 1.7 | 3.5 | 0.00 | 0.00 | 0.00 | 31 | 1010.3 |
| 20260509223005 | 79 | 129 | 0.9 | 2.6 | 0.00 | 0.00 | 0.00 | 30 | 1010.1 |
| 20260509221603 | 78 | 137 | 0.0 | 3.5 | 0.00 | 0.00 | 0.00 | 24 | 1009.8 |
| 20260509220057 | 78 | 144 | 1.7 | 3.5 | 0.00 | 0.00 | 0.00 | 29 | 1009.9 |
| 20260509214516 | 78 | 146 | 0.9 | 3.5 | 0.00 | 0.00 | 0.00 | 24 | 1009.9 |
| 20260509213059 | 78 | 129 | 0.0 | 3.5 | 0.00 | 0.00 | 0.00 | 28 | 1009.9 |
| 20260509211559 | 78 | 99 | 0.0 | 2.6 | 0.00 | 0.00 | 0.00 | 25 | 1010.1 |
| 20260509210026 | 78 | 139 | 0.9 | 3.5 | 0.00 | 0.00 | 0.00 | 30 | 1010.2 |
| 20260509204549 | 77 | 139 | 1.7 | 6.1 | 0.00 | 0.00 | 0.00 | 33 | 1010.2 |
| 20260509203051 | 78 | 106 | 1.7 | 4.3 | 0.00 | 0.00 | 0.00 | 29 | 1010.4 |
| 20260509201520 | 78 | 152 | 2.6 | 4.3 | 0.00 | 0.00 | 0.00 | 27 | 1010.6 |
| 20260509200047 | 77 | 118 | 1.7 | 5.2 | 0.00 | 0.00 | 0.00 | 13 | 1010.5 |
| 20260509194535 | 77 | 112 | 2.6 | 7.0 | 0.00 | 0.00 | 0.00 | 16 | 1010.8 |
| 20260509193026 | 77 | 109 | 2.6 | 6.1 | 0.00 | 0.00 | 0.00 | 22 | 1010.8 |
| 20260509191518 | 77 | 137 | 0.9 | 7.0 | 0.00 | 0.00 | 0.00 | 22 | 1011.0 |
| 20260509190033 | 77 | 118 | 1.7 | 4.3 | 0.00 | 0.00 | 0.00 | 30 | 1010.8 |
| 20260509184547 | 77 | 112 | 2.6 | 6.1 | 0.00 | 0.00 | 0.00 | 27 | 1010.8 |
| 20260509183007 | 77 | 143 | 0.9 | 5.2 | 0.00 | 0.00 | 0.00 | 24 | 1011.0 |
| 20260509181518 | 76 | 128 | 2.6 | 8.7 | 0.00 | 0.00 | 0.00 | 12 | 1011.1 |
| 20260509180016 | 77 | 111 | 3.5 | 9.6 | 0.00 | 0.00 | 0.00 | 13 | 1011.3 |
| 20260509174527 | 76 | 103 | 3.5 | 7.0 | 0.00 | 0.00 | 0.00 | 4 | 1011.4 |
| 20260509173056 | 74 | 136 | 2.6 | 6.1 | 0.00 | 0.00 | 0.00 | 100 | 1011.5 |
| 20260509171539 | 74 | 125 | 2.6 | 5.2 | 0.00 | 0.00 | 0.00 | 100 | 1011.6 |
| 20260509170030 | 73 | 99 | 2.6 | 7.8 | 0.00 | 0.00 | 0.00 | 100 | 1011.5 |
| 20260509164549 | 73 | 114 | 1.7 | 6.1 | 0.00 | 0.00 | 0.00 | 100 | 1011.7 |
| 20260509163052 | 72 | 102 | 3.5 | 7.0 | 0.00 | 0.00 | 0.00 | 100 | 1011.7 |
| 20260509161544 | 71 | 120 | 2.6 | 7.8 | 0.00 | 0.00 | 0.00 | 100 | 1011.7 |
| 20260509160029 | 71 | 100 | 3.5 | 7.8 | 0.00 | 0.00 | 0.00 | 100 | 1012.0 |
| 20260509154600 | 71 | 107 | 3.5 | 7.0 | 0.00 | 0.00 | 0.00 | 100 | 1012.0 |